THY6FL LFPG-LTFM

Flight info

Callsign THY6FL
Flight time 2h 37m
Altitude 37000
Route LANVI DCT BEGAR DCT TRA DCT GAMSA DCT UMVEG DCT BEDOX DCT NASSY DCT OKLOP DCT ETIDA T390 RILEX
Aircraft A333/H-SDE3GHIJ2J3J5M1RVWXY/LB2D1

Departure

Time 2026-05-07 22:04
Airport Charles de Gaulle International Airport (LFPG)

Arrival

Time 2026-05-08 00:42
Airport İstanbul Airport (LTFM)
Time Latitude Longitude Altitude Speed Heading
2026-05-07 21:40 49.00200 2.56438 357 ft 0 kts 340°
2026-05-07 21:54 49.00199 2.56438 358 ft 0 kts 340°
2026-05-07 21:54 49.00188 2.56444 357 ft 2 kts 340°
2026-05-07 21:54 49.00174 2.56452 357 ft 2 kts 339°
2026-05-07 21:54 49.00160 2.56460 357 ft 2 kts 339°
2026-05-07 21:55 49.00145 2.56467 356 ft 2 kts 357°
2026-05-07 21:55 49.00130 2.56464 355 ft 2 kts 21°
2026-05-07 21:55 49.00116 2.56453 354 ft 2 kts 42°
2026-05-07 21:55 49.00106 2.56436 353 ft 2 kts 64°
2026-05-07 21:56 49.00102 2.56415 353 ft 1 kts 84°
2026-05-07 21:56 49.00101 2.56406 352 ft 1 kts 87°
2026-05-07 21:56 49.00101 2.56405 352 ft 0 kts 87°
2026-05-07 21:59 49.00102 2.56427 353 ft 6 kts 86°
2026-05-07 21:59 49.00099 2.56515 354 ft 10 kts 114°
2026-05-07 22:00 49.00014 2.56573 350 ft 17 kts 173°
2026-05-07 22:00 48.99893 2.56592 348 ft 14 kts 174°
2026-05-07 22:00 48.99820 2.56519 348 ft 14 kts 263°
2026-05-07 22:00 48.99814 2.56328 344 ft 21 kts 266°
2026-05-07 22:01 48.99802 2.56079 340 ft 25 kts 266°
2026-05-07 22:01 48.99769 2.55807 336 ft 27 kts 250°
2026-05-07 22:01 48.99740 2.55532 333 ft 27 kts 265°
2026-05-07 22:01 48.99727 2.55243 330 ft 25 kts 267°
2026-05-07 22:02 48.99724 2.55155 330 ft 0 kts 267°
2026-05-07 22:02 48.99723 2.55138 330 ft 0 kts 266°
2026-05-07 22:02 48.99723 2.55129 330 ft 1 kts 266°
2026-05-07 22:02 48.99714 2.55090 331 ft 7 kts 233°
2026-05-07 22:03 48.99665 2.55117 332 ft 12 kts 118°
2026-05-07 22:03 48.99607 2.55294 332 ft 22 kts 116°
2026-05-07 22:03 48.99582 2.55523 335 ft 22 kts 84°
2026-05-07 22:03 48.99594 2.55739 336 ft 47 kts 85°
2026-05-07 22:04 48.99663 2.57023 348 ft 130 kts 85°
2026-05-07 22:04 48.99743 2.58628 514 ft 162 kts 86°
2026-05-07 22:04 48.99816 2.60308 1108 ft 163 kts 86°
2026-05-07 22:04 48.99872 2.62037 1767 ft 165 kts 88°
2026-05-07 22:05 48.99924 2.63733 2245 ft 165 kts 88°
2026-05-07 22:05 48.99983 2.65567 2506 ft 179 kts 88°
2026-05-07 22:05 49.00051 2.67547 2765 ft 194 kts 87°
2026-05-07 22:05 49.00129 2.69702 2998 ft 212 kts 87°
2026-05-07 22:06 49.00217 2.72042 3362 ft 230 kts 87°
2026-05-07 22:06 49.00317 2.74587 3770 ft 246 kts 87°
2026-05-07 22:06 49.00485 2.77240 4297 ft 258 kts 78°
2026-05-07 22:06 49.00856 2.79949 4977 ft 262 kts 89°
2026-05-07 22:07 49.00512 2.82688 5653 ft 265 kts 107°
2026-05-07 22:07 49.00097 2.85413 6337 ft 269 kts 101°
2026-05-07 22:07 48.99743 2.88250 6994 ft 274 kts 101°
2026-05-07 22:07 48.99397 2.91142 7662 ft 279 kts 101°
2026-05-07 22:08 48.99046 2.94113 8325 ft 283 kts 101°
2026-05-07 22:08 48.98728 2.97110 8970 ft 288 kts 98°
2026-05-07 22:08 48.98493 3.00137 9575 ft 293 kts 98°
2026-05-07 22:08 48.98315 3.02256 10003 ft 296 kts 98°
2026-05-07 22:09 48.97963 3.06490 10587 ft 312 kts 98°
2026-05-07 22:09 48.97678 3.09883 10841 ft 331 kts 98°
2026-05-07 22:09 48.97377 3.13465 11080 ft 350 kts 98°
2026-05-07 22:09 48.97054 3.17294 11301 ft 368 kts 98°
2026-05-07 22:10 48.96720 3.21238 11848 ft 376 kts 98°
2026-05-07 22:10 48.96382 3.25202 12542 ft 378 kts 98°
2026-05-07 22:10 48.96044 3.29155 13129 ft 383 kts 98°
2026-05-07 22:10 48.95696 3.33212 13730 ft 387 kts 98°
2026-05-07 22:11 48.95340 3.37342 14349 ft 390 kts 98°
2026-05-07 22:11 48.94981 3.41485 14977 ft 393 kts 98°
2026-05-07 22:11 48.94622 3.45602 15550 ft 397 kts 98°
2026-05-07 22:11 48.94256 3.49798 16090 ft 401 kts 98°
2026-05-07 22:12 48.93882 3.54056 16658 ft 404 kts 98°
2026-05-07 22:12 48.93612 3.58312 17204 ft 407 kts 94°
2026-05-07 22:12 48.93399 3.62625 17720 ft 410 kts 95°
2026-05-07 22:12 48.93172 3.66999 18252 ft 413 kts 96°
2026-05-07 22:13 48.92939 3.71392 18778 ft 415 kts 96°
2026-05-07 22:13 48.92705 3.75780 19267 ft 419 kts 96°
2026-05-07 22:13 48.92462 3.80290 19775 ft 422 kts 96°
2026-05-07 22:13 48.92301 3.83264 20103 ft 423 kts 96°
2026-05-07 22:14 48.91976 3.89212 20727 ft 427 kts 96°
2026-05-07 22:14 48.91727 3.93746 21168 ft 430 kts 95°
2026-05-07 22:14 48.91472 3.98351 21614 ft 433 kts 95°
2026-05-07 22:14 48.91215 4.02944 22033 ft 437 kts 95°
2026-05-07 22:15 48.90952 4.07611 22472 ft 439 kts 95°
2026-05-07 22:15 48.90689 4.12255 22903 ft 441 kts 95°
2026-05-07 22:15 48.90420 4.16969 23306 ft 444 kts 95°
2026-05-07 22:15 48.90046 4.21687 23641 ft 447 kts 103°
2026-05-07 22:16 48.89390 4.24680 23879 ft 447 kts 115°
2026-05-07 22:16 48.87380 4.30165 24428 ft 448 kts 120°
2026-05-07 22:16 48.85829 4.34380 24830 ft 450 kts 120°
2026-05-07 22:16 48.84304 4.38533 25193 ft 453 kts 120°
2026-05-07 22:17 48.82751 4.42765 25574 ft 455 kts 120°
2026-05-07 22:17 48.81200 4.46988 25950 ft 458 kts 120°
2026-05-07 22:17 48.79633 4.51249 26317 ft 460 kts 120°
2026-05-07 22:17 48.78067 4.55496 26652 ft 463 kts 120°
2026-05-07 22:18 48.76490 4.59770 26993 ft 466 kts 120°
2026-05-07 22:18 48.73287 4.68427 27681 ft 471 kts 121°
2026-05-07 22:18 48.71682 4.72754 27998 ft 473 kts 121°
2026-05-07 22:19 48.70059 4.77124 28347 ft 475 kts 121°
2026-05-07 22:19 48.68415 4.81541 28654 ft 477 kts 121°
2026-05-07 22:19 48.66774 4.85944 28953 ft 479 kts 121°
2026-05-07 22:19 48.65124 4.90363 29200 ft 482 kts 121°
2026-05-07 22:20 48.63473 4.94779 29486 ft 483 kts 121°
2026-05-07 22:20 48.61808 4.99224 29899 ft 482 kts 121°
2026-05-07 22:20 48.60138 5.03674 30312 ft 481 kts 121°
2026-05-07 22:20 48.58476 5.08096 30705 ft 480 kts 121°
2026-05-07 22:21 48.57372 5.11028 30949 ft 479 kts 121°
2026-05-07 22:21 48.55161 5.16893 31370 ft 479 kts 121°
2026-05-07 22:21 48.53628 5.20951 31643 ft 479 kts 121°
2026-05-07 22:21 48.51973 5.25326 31925 ft 480 kts 121°
2026-05-07 22:22 48.50325 5.29675 32217 ft 480 kts 121°
2026-05-07 22:22 48.48637 5.34121 32512 ft 480 kts 121°
2026-05-07 22:22 48.46964 5.38520 32790 ft 480 kts 121°
2026-05-07 22:22 48.45298 5.42894 33085 ft 480 kts 121°
2026-05-07 22:23 48.43623 5.47286 33354 ft 479 kts 122°
2026-05-07 22:23 48.41957 5.51646 33615 ft 479 kts 122°
2026-05-07 22:23 48.40297 5.55984 33865 ft 479 kts 122°
2026-05-07 22:23 48.39188 5.58875 34026 ft 479 kts 122°
2026-05-07 22:24 48.36948 5.64710 34340 ft 479 kts 122°
2026-05-07 22:24 48.35280 5.69048 34534 ft 480 kts 123°
2026-05-07 22:24 48.33615 5.73368 34751 ft 480 kts 123°
2026-05-07 22:24 48.31928 5.77741 34926 ft 479 kts 122°
2026-05-07 22:25 48.30910 5.80751 35025 ft 481 kts 114°
2026-05-07 22:25 48.29536 5.87175 35209 ft 483 kts 110°
2026-05-07 22:25 48.28500 5.91971 35388 ft 482 kts 110°
2026-05-07 22:25 48.27819 5.95114 35508 ft 482 kts 110°
2026-05-07 22:26 48.26424 6.01512 35696 ft 481 kts 110°
2026-05-07 22:26 48.24662 6.09560 35878 ft 482 kts 110°
2026-05-07 22:26 48.23257 6.15948 36030 ft 482 kts 110°
2026-05-07 22:27 48.22201 6.20742 36137 ft 482 kts 110°
2026-05-07 22:27 48.21149 6.25501 36247 ft 482 kts 110°
2026-05-07 22:27 48.20448 6.28671 36340 ft 482 kts 110°
2026-05-07 22:27 48.19022 6.35099 36517 ft 483 kts 110°
2026-05-07 22:28 48.17963 6.39857 36669 ft 482 kts 110°
2026-05-07 22:28 48.16895 6.44648 36817 ft 482 kts 110°
2026-05-07 22:28 48.15821 6.49453 36948 ft 482 kts 110°
2026-05-07 22:29 48.13675 6.59025 37039 ft 487 kts 110°
2026-05-07 22:29 48.11508 6.68647 37045 ft 492 kts 110°
2026-05-07 22:30 48.09296 6.78423 37051 ft 495 kts 110°
2026-05-07 22:30 48.07065 6.88237 37042 ft 498 kts 110°
2026-05-07 22:31 48.04821 6.98062 37048 ft 501 kts 110°
2026-05-07 22:31 48.02932 7.06301 37046 ft 501 kts 110°
2026-05-07 22:32 48.00294 7.17752 37048 ft 496 kts 110°
2026-05-07 22:32 47.98019 7.27575 37066 ft 496 kts 110°
2026-05-07 22:33 47.95742 7.37365 37060 ft 498 kts 110°
2026-05-07 22:33 47.93445 7.47195 37070 ft 498 kts 110°
2026-05-07 22:34 47.91161 7.56930 37058 ft 498 kts 110°
2026-05-07 22:34 47.88752 7.66584 37054 ft 498 kts 112°
2026-05-07 22:35 47.86301 7.76266 37070 ft 498 kts 112°
2026-05-07 22:35 47.83830 7.85987 37052 ft 499 kts 112°
2026-05-07 22:36 47.81775 7.94043 37054 ft 498 kts 112°
2026-05-07 22:36 47.78902 8.05257 37051 ft 498 kts 112°
2026-05-07 22:37 47.76426 8.14877 37050 ft 498 kts 112°
2026-05-07 22:37 47.73934 8.24517 37055 ft 499 kts 112°
2026-05-07 22:38 47.71444 8.34115 37052 ft 500 kts 112°
2026-05-07 22:38 47.68930 8.43764 37057 ft 500 kts 112°
2026-05-07 22:39 47.66817 8.53119 37059 ft 501 kts 110°
2026-05-07 22:39 47.64583 8.63017 37055 ft 501 kts 110°
2026-05-07 22:40 47.62360 8.72794 37056 ft 500 kts 110°
2026-05-07 22:40 47.60119 8.82601 37058 ft 501 kts 110°
2026-05-07 22:41 47.57877 8.92375 37071 ft 502 kts 110°
2026-05-07 22:41 47.56001 9.00514 37072 ft 502 kts 110°
2026-05-07 22:42 47.53360 9.11918 37077 ft 502 kts 110°
2026-05-07 22:42 47.51084 9.21702 37079 ft 502 kts 110°
2026-05-07 22:43 47.48799 9.31480 37077 ft 502 kts 110°
2026-05-07 22:43 47.46892 9.39608 37080 ft 502 kts 110°
2026-05-07 22:44 47.44202 9.51018 37087 ft 502 kts 110°
2026-05-07 22:44 47.41895 9.60762 37086 ft 503 kts 110°
2026-05-07 22:45 47.40287 9.70811 37098 ft 504 kts 95°
2026-05-07 22:45 47.39582 9.81197 37088 ft 506 kts 97°
2026-05-07 22:46 47.38905 9.89815 37118 ft 506 kts 97°
2026-05-07 22:46 47.37939 10.01844 37111 ft 506 kts 97°
2026-05-07 22:47 47.37099 10.12168 37116 ft 507 kts 97°
2026-05-07 22:47 47.36257 10.22399 37119 ft 507 kts 97°
2026-05-07 22:48 47.35392 10.32798 37123 ft 507 kts 98°
2026-05-07 22:48 47.34531 10.43028 37124 ft 506 kts 97°
2026-05-07 22:49 47.33651 10.53370 37088 ft 507 kts 98°
2026-05-07 22:49 47.32759 10.63747 37118 ft 508 kts 98°
2026-05-07 22:50 47.31863 10.74058 37125 ft 508 kts 98°
2026-05-07 22:50 47.30953 10.84421 37137 ft 508 kts 98°
2026-05-07 22:51 47.30030 10.94823 37119 ft 509 kts 98°
2026-05-07 22:51 47.29102 11.05167 37104 ft 508 kts 98°
2026-05-07 22:52 47.28164 11.15519 37120 ft 509 kts 98°
2026-05-07 22:52 47.27213 11.25899 37081 ft 511 kts 98°
2026-05-07 22:53 47.26253 11.36272 37091 ft 509 kts 98°
2026-05-07 22:53 47.25282 11.46662 37082 ft 509 kts 98°
2026-05-07 22:54 47.24306 11.57006 37114 ft 511 kts 98°
2026-05-07 22:54 47.23318 11.67373 37115 ft 511 kts 99°
2026-05-07 22:55 47.22320 11.77741 37076 ft 509 kts 99°
2026-05-07 22:55 47.21480 11.86387 37066 ft 510 kts 99°
2026-05-07 22:55 47.20467 11.93209 37056 ft 507 kts 110°
2026-05-07 22:56 47.19318 11.98113 37078 ft 508 kts 110°
2026-05-07 22:56 47.17107 12.08042 37070 ft 509 kts 110°
2026-05-07 22:57 47.15273 12.16299 37080 ft 509 kts 110°
2026-05-07 22:57 47.13075 12.26163 37102 ft 509 kts 110°
2026-05-07 22:58 47.10476 12.37765 37105 ft 509 kts 110°
2026-05-07 22:58 47.08628 12.45980 37121 ft 510 kts 110°
2026-05-07 22:59 47.06376 12.55945 37121 ft 511 kts 110°
2026-05-07 22:59 47.03760 12.67464 37064 ft 511 kts 111°
2026-05-07 23:00 47.01503 12.77350 37081 ft 510 kts 111°
2026-05-07 23:00 46.99231 12.87255 37087 ft 511 kts 111°
2026-05-07 23:01 46.96956 12.97129 37087 ft 511 kts 110°
2026-05-07 23:01 46.95050 13.05369 37086 ft 511 kts 111°
2026-05-07 23:02 46.92364 13.16925 37081 ft 509 kts 111°
2026-05-07 23:02 46.90459 13.25085 37066 ft 510 kts 111°
2026-05-07 23:03 46.88153 13.34920 37085 ft 511 kts 111°
2026-05-07 23:03 46.85445 13.46411 37104 ft 512 kts 111°
2026-05-07 23:04 46.83121 13.56232 37093 ft 512 kts 111°
2026-05-07 23:04 46.81168 13.64447 37106 ft 512 kts 111°
2026-05-07 23:05 46.78824 13.74264 37116 ft 511 kts 112°
2026-05-07 23:05 46.76096 13.85641 37106 ft 512 kts 112°
2026-05-07 23:06 46.73732 13.95450 37101 ft 510 kts 112°
2026-05-07 23:06 46.71748 14.03650 37107 ft 511 kts 112°
2026-05-07 23:07 46.68976 14.15055 37129 ft 513 kts 112°
2026-05-07 23:07 46.66572 14.24899 37112 ft 513 kts 112°
2026-05-07 23:08 46.64160 14.34731 37090 ft 513 kts 112°
2026-05-07 23:08 46.61752 14.44512 37097 ft 513 kts 112°
2026-05-07 23:09 46.59330 14.54299 37088 ft 512 kts 112°
2026-05-07 23:09 46.57322 14.62380 37097 ft 512 kts 112°
2026-05-07 23:10 46.54883 14.72160 37086 ft 512 kts 112°
2026-05-07 23:10 46.52027 14.83559 37078 ft 513 kts 113°
2026-05-07 23:11 46.49575 14.93302 37078 ft 513 kts 113°
2026-05-07 23:11 46.47111 15.03050 37074 ft 512 kts 113°
2026-05-07 23:12 46.45050 15.11170 37082 ft 513 kts 113°
2026-05-07 23:12 46.42154 15.22533 37069 ft 513 kts 113°
2026-05-07 23:13 46.39656 15.32289 37072 ft 513 kts 113°
2026-05-07 23:13 46.37168 15.41966 37074 ft 513 kts 113°
2026-05-07 23:14 46.34649 15.51722 37093 ft 515 kts 113°
2026-05-07 23:14 46.32544 15.59845 37082 ft 515 kts 113°
2026-05-07 23:15 46.29597 15.71164 37062 ft 512 kts 114°
2026-05-07 23:15 46.27065 15.80848 37073 ft 513 kts 114°
2026-05-07 23:16 46.24008 15.90144 37073 ft 510 kts 121°
2026-05-07 23:16 46.21135 15.98404 37062 ft 510 kts 120°
2026-05-07 23:17 46.17923 16.07630 37066 ft 511 kts 120°
2026-05-07 23:17 46.14724 16.16791 37056 ft 511 kts 120°
2026-05-07 23:18 46.11499 16.25996 37059 ft 511 kts 120°
2026-05-07 23:18 46.08249 16.35239 37063 ft 512 kts 120°
2026-05-07 23:19 46.05009 16.44424 37058 ft 511 kts 120°
2026-05-07 23:19 46.01774 16.53560 37055 ft 511 kts 120°
2026-05-07 23:20 45.98541 16.62662 37062 ft 511 kts 120°
2026-05-07 23:20 45.95825 16.70284 37051 ft 510 kts 121°
2026-05-07 23:21 45.92564 16.79404 37059 ft 511 kts 121°
2026-05-07 23:21 45.88754 16.90023 37048 ft 510 kts 121°
2026-05-07 23:22 45.85467 16.99151 37045 ft 509 kts 121°
2026-05-07 23:22 45.82161 17.08301 37053 ft 510 kts 121°
2026-05-07 23:23 45.78894 17.17312 37050 ft 509 kts 121°
2026-05-07 23:23 45.75606 17.26349 37044 ft 509 kts 121°
2026-05-07 23:24 45.72314 17.35370 37059 ft 509 kts 121°
2026-05-07 23:24 45.69020 17.44367 37058 ft 508 kts 121°
2026-05-07 23:25 45.65702 17.53396 37060 ft 509 kts 121°
2026-05-07 23:25 45.62378 17.62412 37065 ft 508 kts 121°
2026-05-07 23:26 45.59086 17.71314 37057 ft 509 kts 122°
2026-05-07 23:26 45.55742 17.80325 37058 ft 508 kts 122°
2026-05-07 23:27 45.51305 17.92232 37057 ft 510 kts 122°
2026-05-07 23:27 45.47377 18.02738 37052 ft 509 kts 122°
2026-05-07 23:28 45.44612 18.10107 37044 ft 509 kts 122°
2026-05-07 23:28 45.40753 18.20558 37036 ft 509 kts 122°
2026-05-07 23:29 45.37429 18.29529 37031 ft 510 kts 122°
2026-05-07 23:29 45.34115 18.38446 37049 ft 510 kts 122°
2026-05-07 23:30 45.30774 18.47400 37054 ft 511 kts 122°
2026-05-07 23:30 45.27412 18.56388 37050 ft 510 kts 122°
2026-05-07 23:31 45.24071 18.65288 37067 ft 510 kts 123°
2026-05-07 23:31 45.20713 18.74201 37058 ft 509 kts 123°
2026-05-07 23:32 45.17341 18.83127 37044 ft 510 kts 123°
2026-05-07 23:32 45.13974 18.92010 37037 ft 511 kts 123°
2026-05-07 23:33 45.11155 18.99425 37048 ft 511 kts 123°
2026-05-07 23:33 45.07193 19.09811 37043 ft 511 kts 122°
2026-05-07 23:34 45.03793 19.18694 37044 ft 512 kts 123°
2026-05-07 23:34 45.00377 19.27591 37050 ft 511 kts 123°
2026-05-07 23:35 44.96972 19.36428 37051 ft 511 kts 123°
2026-05-07 23:35 44.93559 19.45259 37051 ft 511 kts 123°
2026-05-07 23:36 44.90696 19.52643 37046 ft 511 kts 122°
2026-05-07 23:36 44.86679 19.62979 37058 ft 512 kts 122°
2026-05-07 23:37 44.83233 19.71808 37049 ft 511 kts 123°
2026-05-07 23:37 44.79782 19.80626 37044 ft 512 kts 123°
2026-05-07 23:38 44.76910 19.87944 37049 ft 513 kts 123°
2026-05-07 23:38 44.72840 19.98278 37053 ft 513 kts 123°
2026-05-07 23:39 44.69373 20.07051 37055 ft 512 kts 123°
2026-05-07 23:39 44.65882 20.15857 37059 ft 512 kts 123°
2026-05-07 23:40 44.62398 20.24619 37060 ft 512 kts 123°
2026-05-07 23:40 44.58876 20.33450 37057 ft 513 kts 123°
2026-05-07 23:41 44.55383 20.42182 37057 ft 513 kts 123°
2026-05-07 23:41 44.52434 20.49530 37052 ft 512 kts 123°
2026-05-07 23:42 44.48347 20.59686 37052 ft 513 kts 123°
2026-05-07 23:42 44.44804 20.68458 37041 ft 514 kts 123°
2026-05-07 23:43 44.41281 20.77154 37041 ft 514 kts 123°
2026-05-07 23:43 44.37722 20.85912 37039 ft 514 kts 123°
2026-05-07 23:44 44.34150 20.94674 37034 ft 514 kts 123°
2026-05-07 23:44 44.31191 21.01915 37033 ft 514 kts 123°
2026-05-07 23:45 44.27627 21.10607 37032 ft 514 kts 123°
2026-05-07 23:45 44.23424 21.20827 37039 ft 514 kts 123°
2026-05-07 23:46 44.19856 21.29471 37046 ft 516 kts 123°
2026-05-07 23:46 44.16136 21.38068 37046 ft 514 kts 126°
2026-05-07 23:47 44.12939 21.45132 37046 ft 514 kts 125°
2026-05-07 23:47 44.08484 21.54980 37059 ft 515 kts 125°
2026-05-07 23:48 44.05288 21.62030 37053 ft 515 kts 125°
2026-05-07 23:48 44.01432 21.70508 37062 ft 516 kts 126°
2026-05-07 23:49 43.96933 21.80374 37083 ft 516 kts 126°
2026-05-07 23:49 43.93726 21.87382 37075 ft 516 kts 126°
2026-05-07 23:50 43.89836 21.95862 37070 ft 518 kts 126°
2026-05-07 23:50 43.85305 22.05709 37084 ft 517 kts 126°
2026-05-07 23:51 43.81401 22.14166 37076 ft 519 kts 126°
2026-05-07 23:51 43.77507 22.22582 37078 ft 519 kts 125°
2026-05-07 23:52 43.73578 22.31041 37086 ft 519 kts 125°
2026-05-07 23:52 43.69673 22.39428 37080 ft 518 kts 125°
2026-05-07 23:53 43.66718 22.46722 37087 ft 522 kts 117°
2026-05-07 23:53 43.62926 22.57218 37097 ft 522 kts 118°
2026-05-07 23:54 43.60187 22.64678 37092 ft 521 kts 118°
2026-05-07 23:54 43.56320 22.75163 37081 ft 521 kts 119°
2026-05-07 23:55 43.53560 22.82626 37083 ft 522 kts 119°
2026-05-07 23:55 43.49688 22.93064 37075 ft 523 kts 119°
2026-05-07 23:56 43.46354 23.02018 37084 ft 523 kts 119°
2026-05-07 23:56 43.44675 23.06515 36874 ft 527 kts 119°
2026-05-07 23:56 43.43026 23.10932 37080 ft 517 kts 119°
2026-05-07 23:57 43.41381 23.15323 37388 ft 522 kts 119°
2026-05-07 23:57 43.40234 23.18378 36545 ft 529 kts 119°
2026-05-07 23:57 43.38594 23.22756 37394 ft 508 kts 119°
2026-05-07 23:57 43.36396 23.28594 36793 ft 524 kts 119°
2026-05-07 23:58 43.34713 23.33059 37170 ft 519 kts 119°
2026-05-07 23:58 43.33610 23.35986 37143 ft 522 kts 119°
2026-05-07 23:58 43.31906 23.40494 37001 ft 527 kts 119°
2026-05-07 23:58 43.29657 23.46437 37115 ft 528 kts 118°
2026-05-07 23:59 43.27940 23.50966 37217 ft 532 kts 118°
2026-05-07 23:59 43.26240 23.55447 36998 ft 526 kts 119°
2026-05-07 23:59 43.25126 23.58378 37134 ft 518 kts 119°
2026-05-07 23:59 43.22880 23.64271 37055 ft 522 kts 118°
2026-05-08 00:00 43.19488 23.73154 37080 ft 521 kts 120°
2026-05-08 00:00 43.16660 23.80538 37081 ft 523 kts 120°
2026-05-08 00:01 43.14394 23.86441 36738 ft 524 kts 119°
2026-05-08 00:01 43.13261 23.89391 37033 ft 519 kts 120°
2026-05-08 00:01 43.09282 23.99714 37096 ft 526 kts 119°
2026-05-08 00:02 43.05836 24.08625 37035 ft 533 kts 119°
2026-05-08 00:02 43.02350 24.17615 37058 ft 533 kts 119°
2026-05-08 00:03 42.99443 24.25087 37089 ft 530 kts 119°
2026-05-08 00:03 42.95393 24.35464 37099 ft 528 kts 119°
2026-05-08 00:04 42.92482 24.42904 37103 ft 527 kts 119°
2026-05-08 00:04 42.88450 24.53172 37112 ft 527 kts 119°
2026-05-08 00:05 42.85515 24.60621 37121 ft 528 kts 119°
2026-05-08 00:05 42.81453 24.70909 37116 ft 527 kts 120°
2026-05-08 00:06 42.77967 24.79706 37127 ft 527 kts 120°
2026-05-08 00:06 42.75037 24.87081 37129 ft 528 kts 120°
2026-05-08 00:07 42.71506 24.95942 37123 ft 528 kts 120°
2026-05-08 00:07 42.67403 25.06201 37122 ft 525 kts 119°
2026-05-08 00:08 42.63876 25.15000 37120 ft 527 kts 119°
2026-05-08 00:08 42.60371 25.23708 37116 ft 528 kts 119°
2026-05-08 00:09 42.57405 25.31064 37123 ft 526 kts 119°
2026-05-08 00:09 42.53283 25.41249 37098 ft 526 kts 119°
2026-05-08 00:10 42.50327 25.48531 37088 ft 528 kts 119°
2026-05-08 00:10 42.46190 25.58695 37079 ft 526 kts 118°
2026-05-08 00:11 42.43225 25.65958 37068 ft 525 kts 120°
2026-05-08 00:11 42.39076 25.76088 37059 ft 525 kts 120°
2026-05-08 00:12 42.35496 25.84803 37059 ft 527 kts 120°
2026-05-08 00:12 42.33717 25.89119 37046 ft 511 kts 119°
2026-05-08 00:12 42.32584 25.91869 36956 ft 502 kts 119°
2026-05-08 00:13 42.30875 25.96011 36509 ft 494 kts 119°
2026-05-08 00:13 42.29197 26.00071 36153 ft 489 kts 120°
2026-05-08 00:13 42.27513 26.04135 35885 ft 500 kts 119°
2026-05-08 00:13 42.25210 26.09691 35510 ft 511 kts 120°
2026-05-08 00:14 42.23476 26.13866 35310 ft 507 kts 120°
2026-05-08 00:14 42.21756 26.18003 34887 ft 501 kts 119°
2026-05-08 00:14 42.20601 26.20779 34643 ft 502 kts 120°
2026-05-08 00:14 42.18894 26.24870 34276 ft 502 kts 120°
2026-05-08 00:15 42.17142 26.29069 33909 ft 503 kts 120°
2026-05-08 00:15 42.14848 26.34553 33439 ft 502 kts 120°
2026-05-08 00:15 42.13699 26.37297 33204 ft 500 kts 120°
2026-05-08 00:15 42.11422 26.42726 32677 ft 500 kts 120°
2026-05-08 00:16 42.10268 26.45476 32316 ft 499 kts 120°
2026-05-08 00:16 42.08562 26.49532 31804 ft 496 kts 120°
2026-05-08 00:16 42.06304 26.54896 31124 ft 489 kts 120°
2026-05-08 00:16 42.04606 26.58921 30482 ft 488 kts 120°
2026-05-08 00:17 42.02918 26.62918 29783 ft 486 kts 121°
2026-05-08 00:17 42.01821 26.65511 29331 ft 484 kts 121°
2026-05-08 00:17 41.99608 26.70738 28401 ft 476 kts 121°
2026-05-08 00:17 41.98515 26.73319 27935 ft 473 kts 121°
2026-05-08 00:18 41.96253 26.78323 27139 ft 465 kts 123°
2026-05-08 00:18 41.94532 26.82034 26556 ft 459 kts 123°
2026-05-08 00:18 41.92863 26.85622 25979 ft 454 kts 123°
2026-05-08 00:18 41.91178 26.89237 25391 ft 451 kts 123°
2026-05-08 00:19 41.90053 26.91650 25000 ft 451 kts 123°
2026-05-08 00:19 41.87866 26.96335 24532 ft 443 kts 123°
2026-05-08 00:19 41.86223 26.99848 24360 ft 443 kts 123°
2026-05-08 00:19 41.84571 27.03375 24159 ft 444 kts 123°
2026-05-08 00:20 41.82933 27.06871 23958 ft 442 kts 123°
2026-05-08 00:20 41.81307 27.10337 23750 ft 441 kts 123°
2026-05-08 00:20 41.79669 27.13820 23421 ft 440 kts 123°
2026-05-08 00:20 41.78579 27.16141 23167 ft 437 kts 123°
2026-05-08 00:21 41.76956 27.19589 22805 ft 426 kts 123°
2026-05-08 00:21 41.75384 27.22924 22437 ft 417 kts 123°
2026-05-08 00:21 41.73350 27.27237 21958 ft 406 kts 123°
2026-05-08 00:21 41.71843 27.30426 21595 ft 398 kts 123°
2026-05-08 00:22 41.70868 27.32488 21384 ft 398 kts 123°
2026-05-08 00:22 41.69380 27.35632 21062 ft 397 kts 123°
2026-05-08 00:22 41.67390 27.39833 20584 ft 396 kts 123°
2026-05-08 00:22 41.65915 27.42942 20240 ft 392 kts 123°
2026-05-08 00:23 41.64938 27.44999 20002 ft 390 kts 123°
2026-05-08 00:23 41.63492 27.48042 19652 ft 388 kts 122°
2026-05-08 00:23 41.61554 27.52116 19192 ft 388 kts 122°
2026-05-08 00:23 41.60109 27.55151 18851 ft 385 kts 123°
2026-05-08 00:24 41.58681 27.58146 18505 ft 383 kts 122°
2026-05-08 00:24 41.57232 27.61182 18159 ft 379 kts 122°
2026-05-08 00:24 41.56289 27.63156 17929 ft 379 kts 122°
2026-05-08 00:24 41.54393 27.67122 17472 ft 377 kts 123°
2026-05-08 00:25 41.52980 27.70074 17126 ft 375 kts 123°
2026-05-08 00:25 41.51570 27.73016 16785 ft 373 kts 123°
2026-05-08 00:25 41.50642 27.74953 16556 ft 371 kts 123°
2026-05-08 00:25 41.48772 27.78850 15965 ft 370 kts 123°
2026-05-08 00:26 41.47849 27.80770 15681 ft 369 kts 123°
2026-05-08 00:26 41.46471 27.83637 15233 ft 367 kts 123°
2026-05-08 00:26 41.44635 27.87451 14648 ft 365 kts 123°
2026-05-08 00:26 41.43260 27.90305 14258 ft 361 kts 122°
2026-05-08 00:27 41.42218 27.93325 13840 ft 359 kts 103°
2026-05-08 00:27 41.42003 27.96570 13456 ft 354 kts 84°
2026-05-08 00:27 41.42442 27.99787 13062 ft 349 kts 73°
2026-05-08 00:27 41.43138 28.02831 12684 ft 346 kts 70°
2026-05-08 00:28 41.43950 28.05878 12290 ft 344 kts 68°
2026-05-08 00:28 41.44796 28.08828 11899 ft 342 kts 67°
2026-05-08 00:28 41.45661 28.11754 11508 ft 340 kts 66°
2026-05-08 00:28 41.46241 28.13692 11249 ft 339 kts 66°
2026-05-08 00:29 41.47403 28.17556 10705 ft 335 kts 66°
2026-05-08 00:29 41.48252 28.20370 10286 ft 325 kts 67°
2026-05-08 00:29 41.48812 28.22223 10048 ft 317 kts 67°
2026-05-08 00:29 41.49886 28.25776 9578 ft 304 kts 67°
2026-05-08 00:30 41.50655 28.28325 9176 ft 297 kts 67°
2026-05-08 00:30 41.51428 28.30888 8716 ft 293 kts 67°
2026-05-08 00:30 41.52179 28.33382 8330 ft 294 kts 67°
2026-05-08 00:30 41.52691 28.35083 8045 ft 297 kts 66°
2026-05-08 00:31 41.53709 28.38538 7459 ft 300 kts 64°
2026-05-08 00:31 41.54910 28.40715 7109 ft 290 kts 41°
2026-05-08 00:31 41.56314 28.42573 6823 ft 281 kts 45°
2026-05-08 00:31 41.57659 28.44476 6557 ft 278 kts 45°
2026-05-08 00:32 41.58534 28.45718 6357 ft 277 kts 45°
2026-05-08 00:32 41.59850 28.47596 6055 ft 276 kts 45°
2026-05-08 00:32 41.61602 28.50096 5660 ft 274 kts 45°
2026-05-08 00:32 41.62449 28.51307 5433 ft 267 kts 45°
2026-05-08 00:33 41.64077 28.53643 5052 ft 250 kts 47°
2026-05-08 00:33 41.64696 28.54928 4954 ft 244 kts 69°
2026-05-08 00:33 41.64803 28.57856 5061 ft 240 kts 102°
2026-05-08 00:33 41.64502 28.60055 4970 ft 236 kts 101°
2026-05-08 00:34 41.64204 28.62192 4978 ft 230 kts 101°
2026-05-08 00:34 41.63904 28.64282 4993 ft 230 kts 101°
2026-05-08 00:34 41.63540 28.66362 4973 ft 229 kts 115°
2026-05-08 00:34 41.62632 28.68071 5021 ft 232 kts 138°
2026-05-08 00:35 41.61422 28.69539 5007 ft 236 kts 142°
2026-05-08 00:35 41.60570 28.70466 4981 ft 235 kts 144°
2026-05-08 00:35 41.59257 28.71754 4976 ft 234 kts 158°
2026-05-08 00:35 41.57207 28.72130 5010 ft 219 kts 182°
2026-05-08 00:36 41.56204 28.72155 4987 ft 217 kts 182°
2026-05-08 00:36 41.54201 28.72211 4991 ft 216 kts 182°
2026-05-08 00:36 41.52678 28.72247 4796 ft 220 kts 182°
2026-05-08 00:36 41.51157 28.72281 4509 ft 218 kts 182°
2026-05-08 00:37 41.49651 28.72313 4226 ft 215 kts 182°
2026-05-08 00:37 41.48163 28.72344 3903 ft 211 kts 182°
2026-05-08 00:37 41.46725 28.72373 3641 ft 202 kts 183°
2026-05-08 00:38 41.44060 28.72428 3250 ft 183 kts 183°
2026-05-08 00:38 41.43218 28.72444 3046 ft 181 kts 183°
2026-05-08 00:38 41.41601 28.72476 2664 ft 167 kts 184°
2026-05-08 00:38 41.40485 28.72498 2411 ft 155 kts 183°
2026-05-08 00:39 41.39431 28.72519 2184 ft 145 kts 183°
2026-05-08 00:39 41.38784 28.72531 2041 ft 138 kts 183°
2026-05-08 00:39 41.37483 28.72553 1826 ft 143 kts 183°
2026-05-08 00:39 41.36479 28.72571 1652 ft 144 kts 182°
2026-05-08 00:40 41.35488 28.72591 1454 ft 142 kts 182°
2026-05-08 00:40 41.34487 28.72611 1256 ft 140 kts 181°
2026-05-08 00:40 41.33548 28.72630 1052 ft 132 kts 181°
2026-05-08 00:40 41.32929 28.72642 955 ft 134 kts 181°
2026-05-08 00:41 41.31983 28.72661 765 ft 134 kts 180°
2026-05-08 00:41 41.30730 28.72699 545 ft 135 kts 180°
2026-05-08 00:41 41.29787 28.72704 360 ft 135 kts 179°
2026-05-08 00:41 41.28996 28.72721 338 ft 82 kts 180°
2026-05-08 00:42 41.28545 28.72730 338 ft 61 kts 179°
2026-05-08 00:42 41.28263 28.72737 338 ft 44 kts 179°
2026-05-08 00:42 41.28059 28.72741 338 ft 25 kts 179°
2026-05-08 00:42 41.27824 28.72799 338 ft 26 kts 154°
2026-05-08 00:43 41.27666 28.72915 338 ft 26 kts 150°
2026-05-08 00:43 41.27552 28.72973 338 ft 26 kts 172°
2026-05-08 00:43 41.27305 28.72982 338 ft 27 kts 179°
2026-05-08 00:43 41.27113 28.72985 338 ft 27 kts 180°
2026-05-08 00:44 41.26998 28.72986 338 ft 15 kts 179°
2026-05-08 00:44 41.26944 28.73138 338 ft 17 kts 90°
2026-05-08 00:44 41.26946 28.73321 338 ft 21 kts 89°
2026-05-08 00:44 41.26946 28.73532 338 ft 24 kts 89°
2026-05-08 00:45 41.26949 28.73764 338 ft 25 kts 89°
2026-05-08 00:45 41.26951 28.74004 338 ft 26 kts 89°
2026-05-08 00:45 41.26955 28.74168 338 ft 26 kts 90°
2026-05-08 00:45 41.26951 28.74440 338 ft 7 kts 114°
2026-05-08 00:46 41.26867 28.74461 338 ft 18 kts 180°
2026-05-08 00:46 41.26731 28.74461 338 ft 20 kts 180°
2026-05-08 00:46 41.26636 28.74465 338 ft 21 kts 178°
2026-05-08 00:46 41.26477 28.74467 338 ft 13 kts 180°
2026-05-08 00:47 41.26406 28.74545 338 ft 8 kts 101°
2026-05-08 00:47 41.26385 28.74583 338 ft 3 kts 137°
2026-05-08 00:47 41.26355 28.74618 338 ft 2 kts 142°
2026-05-08 00:47 41.26352 28.74621 338 ft 0 kts 142°
2026-05-08 00:48 41.26350 28.74622 338 ft 0 kts 142°